Location: Ch�ze
(42.9000°N, 0.0333°W)
Time: 19:33:36
(UTC+00:00)

CSL-04 Rocket - Pass Details

Date: 24 January 2021
Orbit: 806 x 860 km, 98.9° (Epoch: 07 March)

Event Time Altitude Azimuth Distance (km) Brightness Sun altitude
Rises 19:02:55 0° 163° (SSE) 3,353 6.7 -21.9°
Reaches altitude 10° 19:05:14 10° 163° (SSE) 2,431 6.0 -22.3°
Maximum altitude 19:10:39 87° 76° (ENE) 848 3.6 -23.3°
Drops below altitude 10° 19:16:10 10° 347° (NNW) 2,483 6.2 -24.3°
Sets 19:18:34 0° 347° (NNW) 3,429 7.0 -24.8°
